Theta_e
314 314 314 314 314 314 314 314 314 314 313 313 313 313 313 312 312 312 312 311 311 311 311 310 310 310 309 309 308 308 307 307 306 306 305 305 306 306 306 306 306 306 305 304 303 303 302 301 301 301 300 299 298 298 297 296 296 295 294 293 293 292 292 291 292 293 294 294 295 295 294 293 292 292 292 292 291 288 286 285 284 284 284 284 284
313 313 313 313 313 312 313 312 312 312 312 312 312 312 312 312 312 312 311 310 309 310 310 309 309 309 309 308 308 307 307 307 306 306 305 305 306 306 306 305 305 305 305 304 304 303 302 301 302 302 301 299 299 299 297 297 296 295 294 293 292 292 292 291 291 292 293 294 294 294 293 292 292 292 292 292 291 289 288 286 284 284 284 284 283
312 312 312 312 312 311 311 311 311 311 311 311 311 311 312 311 311 311 310 309 308 308 309 308 308 308 308 308 307 307 307 307 306 306 305 305 305 305 305 305 305 305 304 304 304 303 302 302 302 302 301 299 299 299 298 297 296 295 294 293 292 292 292 291 291 291 292 293 293 293 293 292 292 292 291 291 291 290 289 288 286 286 284 283 283
311 311 311 311 311 311 311 310 310 311 311 311 311 311 311 311 310 310 309 308 308 308 308 307 307 307 307 307 307 307 307 306 306 306 305 305 304 305 305 305 304 304 304 304 304 303 302 302 302 302 301 299 299 299 298 297 296 295 294 294 293 292 292 291 291 291 291 292 293 294 293 292 291 291 291 290 289 288 288 288 287 286 284 282 282
310 310 310 310 310 310 310 310 310 310 310 310 310 310 310 309 309 308 308 308 307 307 307 307 306 306 306 306 306 306 306 306 306 306 305 305 304 304 304 304 304 304 304 304 303 303 303 302 302 302 301 300 299 299 298 297 296 295 295 294 294 293 293 292 291 291 290 291 292 293 293 291 291 290 290 289 288 287 287 286 285 285 283 282 281
310 310 309 309 309 310 310 310 310 310 310 310 309 309 309 308 308 307 307 307 307 306 306 306 306 305 305 305 305 305 306 306 305 305 305 304 304 304 303 303 303 303 303 303 303 303 303 302 302 302 301 300 299 299 298 298 297 296 295 295 294 294 293 292 292 291 291 291 291 292 292 291 290 289 288 288 287 286 285 284 284 283 282 281 280
310 310 310 309 309 310 310 310 309 309 309 308 308 308 307 307 307 306 306 306 306 306 306 306 305 305 305 305 304 304 305 305 305 304 304 304 303 302 302 302 302 303 303 302 302 302 302 302 302 302 301 301 300 300 299 299 298 297 297 296 295 294 294 293 292 291 291 291 291 291 291 291 290 289 288 288 286 285 284 283 282 282 281 281 280
309 310 310 310 310 309 309 309 308 308 308 307 307 307 306 306 306 306 306 306 306 306 305 305 305 305 305 304 304 304 304 304 304 304 303 303 302 301 301 300 301 301 301 301 300 301 301 301 301 301 301 301 301 300 300 299 299 298 298 297 296 295 294 294 293 292 291 291 291 291 291 291 291 289 288 286 285 284 284 283 282 282 282 281 280
309 310 310 310 309 309 308 308 307 307 307 306 306 306 306 306 306 305 305 305 305 305 305 305 305 304 304 304 303 303 304 304 304 303 303 302 302 301 300 300 300 300 300 300 300 300 300 300 301 301 301 301 301 301 301 300 299 299 298 297 296 296 295 294 293 292 292 291 291 291 291 291 291 290 288 285 285 285 284 283 282 283 282 281 280
309 309 310 309 308 308 307 307 307 306 306 306 305 305 305 305 305 305 305 305 304 304 304 304 304 304 304 303 303 303 303 304 304 304 302 302 301 300 300 300 299 299 299 299 299 299 299 300 300 301 301 301 301 301 300 300 300 299 299 298 297 296 295 294 293 293 292 292 291 292 291 291 291 291 289 287 285 285 284 283 282 282 282 281 280
308 308 308 308 307 307 306 306 306 305 305 305 305 305 305 305 305 305 304 304 304 304 304 304 303 303 303 303 303 303 303 304 304 303 302 301 300 300 299 299 299 299 299 298 298 298 299 299 299 300 300 299 299 299 299 299 299 299 299 298 298 297 296 295 294 293 293 292 292 292 292 292 291 291 291 289 286 284 284 283 282 282 281 280 280
307 307 307 306 306 306 305 305 305 304 304 304 304 304 304 304 303 303 303 303 303 303 303 303 303 302 302 302 302 303 303 303 303 302 302 301 300 299 299 298 298 298 298 298 298 298 298 298 298 299 299 298 298 298 298 298 299 299 299 298 298 297 297 296 295 294 293 293 292 293 293 293 292 292 291 290 287 285 284 283 282 282 281 281 281
306 306 305 305 305 304 304 304 303 303 303 303 303 302 302 302 302 302 302 302 302 302 302 302 302 301 301 301 301 302 302 302 301 301 301 300 299 299 298 298 297 297 297 297 297 298 298 298 298 298 298 298 298 297 297 297 297 298 298 298 298 297 297 296 295 295 294 293 293 293 293 293 292 292 292 291 288 285 283 283 282 282 282 281 281
304 304 303 303 303 303 302 302 302 302 302 302 302 301 301 301 301 301 301 301 301 301 301 301 301 300 300 300 300 301 301 301 300 300 300 299 299 298 297 297 297 296 297 296 296 296 297 297 297 297 297 297 297 297 297 296 296 296 296 296 296 296 296 296 295 295 294 294 293 293 293 293 293 292 292 291 289 287 285 284 283 283 282 282 282
301 301 301 300 301 301 300 301 301 301 301 301 301 301 301 301 301 301 301 301 300 300 300 300 300 299 299 299 299 300 301 300 299 299 299 299 298 297 297 296 296 296 296 296 296 296 296 296 296 296 296 296 296 296 296 296 295 295 295 294 295 295 294 294 294 294 294 294 293 293 293 293 292 292 292 291 290 288 287 286 285 284 284 283 283
298 298 299 299 299 299 299 299 300 300 300 300 300 300 300 300 300 300 300 299 299 299 299 299 299 298 298 298 298 299 300 300 299 298 298 298 297 297 296 296 296 296 296 296 295 295 295 295 295 295 295 295 295 295 295 295 294 294 294 293 293 293 293 293 293 293 293 293 293 293 293 292 292 292 291 290 290 289 287 286 285 284 283 283 283
297 297 297 297 297 298 298 298 299 299 300 300 299 299 299 299 299 299 299 299 299 299 299 299 299 299 299 298 298 299 300 300 299 298 298 297 296 296 295 295 295 295 295 295 295 295 295 295 294 294 294 294 294 294 294 294 293 293 293 292 292 292 292 292 292 292 292 292 291 291 291 291 291 291 290 290 289 289 287 285 284 284 283 283 283
295 295 296 296 296 297 297 297 298 298 298 299 299 299 299 299 299 298 299 299 299 299 299 299 300 299 299 299 298 298 300 300 299 298 297 296 295 295 294 294 293 294 294 294 294 294 294 294 294 293 293 293 293 293 293 293 293 292 292 292 291 291 291 291 291 291 291 290 290 290 289 289 289 289 289 289 289 288 287 285 285 284 283 283 283
294 294 295 295 295 296 296 296 297 297 298 298 298 298 298 298 298 298 298 298 298 298 298 298 299 299 299 299 298 298 299 299 298 298 297 296 295 294 293 293 293 293 293 293 293 293 293 293 293 293 293 293 292 292 292 292 292 292 292 291 291 291 291 291 291 290 290 289 289 288 288 288 288 288 288 288 288 287 287 286 285 284 283 283 284
292 293 294 294 294 295 295 295 296 296 297 298 298 298 298 297 297 297 297 297 297 298 298 298 298 298 298 298 298 298 298 298 298 297 296 296 295 294 293 292 292 292 292 292 292 292 293 292 292 292 292 292 292 291 291 292 291 291 291 291 290 291 291 290 290 290 289 288 288 287 287 287 286 286 287 287 287 286 286 286 285 284 284 284 284
292 293 293 294 294 295 295 295 296 296 296 297 297 297 297 296 297 297 296 297 297 297 297 297 297 298 298 298 298 298 297 297 297 296 295 295 294 293 292 291 291 291 291 291 292 292 292 292 292 292 292 291 291 291 291 291 291 291 291 290 290 290 290 290 289 288 288 287 287 286 286 285 285 285 285 286 286 286 285 285 285 284 284 284 284
291 292 293 293 294 294 294 294 295 295 295 296 296 296 296 296 296 296 296 296 296 296 296 296 295 296 297 297 297 298 297 296 295 295 294 293 292 291 291 291 291 290 290 291 291 291 291 291 291 291 291 291 290 290 290 290 290 290 290 290 290 290 290 289 289 287 287 286 286 285 285 285 285 285 285 285 285 285 285 285 285 284 284 284 284
291 291 292 292 293 293 293 294 294 294 294 294 294 295 295 295 295 294 294 294 294 295 295 294 294 294 295 295 296 297 296 295 294 294 293 292 291 291 291 291 291 290 289 290 290 290 290 291 291 290 290 290 290 290 290 290 290 290 290 290 290 289 289 289 288 287 286 286 285 285 285 284 284 284 284 285 285 285 285 285 284 284 284 284 284
290 291 291 292 292 292 292 292 292 292 292 292 293 293 293 293 293 293 293 293 292 292 292 292 292 292 293 294 294 295 295 294 293 293 293 292 291 290 290 290 290 290 289 289 289 289 289 290 290 290 290 289 289 289 289 289 289 289 289 289 289 289 289 288 287 286 286 285 284 284 284 284 284 284 284 284 284 284 284 284 284 283 283 283 284
290 291 291 291 291 292 292 292 292 292 291 291 291 291 291 291 291 291 291 291 291 291 290 291 290 290 291 292 292 293 292 292 292 293 293 292 291 290 290 290 289 289 289 288 289 289 289 289 289 289 289 288 288 288 289 289 289 288 289 288 288 288 288 287 287 286 285 284 284 284 284 283 284 284 284 284 284 284 283 283 282 282 282 282 282
289 289 290 290 290 291 291 291 291 291 291 290 290 290 290 290 289 289 289 290 290 289 289 289 289 289 290 290 291 291 290 290 291 291 292 291 290 290 290 290 290 290 289 289 289 289 289 289 288 288 288 288 288 288 288 288 288 288 288 287 287 287 287 287 286 285 284 284 284 283 283 283 283 283 283 283 283 283 282 282 281 280 281 281 281
287 287 287 288 288 288 289 289 289 289 289 290 290 290 290 289 287 287 287 288 288 288 288 288 289 289 289 289 289 289 289 289 289 290 290 289 289 288 288 289 289 289 289 289 289 289 288 288 288 288 288 287 287 287 287 287 287 287 287 286 286 286 287 286 286 285 284 284 284 283 283 283 283 282 282 282 282 282 281 280 280 280 280 281 280
285 285 285 285 285 286 286 287 287 288 289 289 290 289 288 287 286 285 286 286 286 286 286 287 287 288 288 288 288 288 288 288 288 288 288 288 287 287 287 287 287 288 288 288 288 288 287 287 287 287 287 287 287 287 287 287 286 286 286 285 285 285 286 286 285 285 284 284 283 283 283 282 282 282 282 281 281 281 280 280 279 279 279 279 278
282 282 283 283 283 283 284 285 286 287 286 287 287 287 286 285 285 285 286 286 285 285 284 284 285 286 286 286 286 287 287 287 287 287 287 286 286 286 286 286 286 287 287 287 287 286 286 286 287 287 287 287 286 286 286 286 285 285 285 284 284 285 285 285 284 284 284 283 283 282 282 282 281 281 281 281 280 280 280 279 279 279 278 278 277
277 278 279 280 280 281 281 282 282 281 280 280 281 282 284 285 284 284 285 285 285 284 284 283 284 284 284 285 285 285 286 286 286 285 285 285 286 286 286 286 286 286 286 286 286 286 286 286 287 287 287 286 286 285 285 285 284 284 284 284 284 284 284 284 284 284 283 283 282 282 282 281 281 280 280 280 280 279 279 279 278 278 278 277 277
275 276 276 277 277 277 277 277 277 277 277 276 276 278 280 282 283 284 285 284 284 283 283 283 283 283 284 284 284 284 285 285 285 285 285 285 286 286 286 286 286 286 286 286 286 287 286 287 287 287 286 285 285 285 285 284 284 284 284 284 284 284 284 284 284 283 283 282 282 282 281 281 280 280 280 280 279 279 278 278 278 278 277 277 277
275 274 275 275 275 275 275 275 275 275 275 275 275 276 277 279 280 282 283 283 283 283 282 282 282 283 283 283 284 284 284 284 285 285 285 285 285 286 286 286 286 286 286 286 286 286 286 287 286 286 286 285 284 284 284 284 284 284 284 284 284 284 284 284 284 283 283 282 282 281 281 280 280 280 280 280 279 278 278 277 277 277 277 277 277
273 273 273 273 274 275 275 274 274 275 274 274 275 275 276 277 278 279 280 281 281 282 282 282 282 282 283 283 283 284 284 284 284 285 285 285 285 285 285 285 286 286 286 286 286 286 286 286 286 286 285 285 284 284 284 284 284 284 284 284 284 284 284 284 284 283 283 282 281 281 280 280 280 279 279 279 279 278 278 277 277 277 277 277 277
273 273 273 273 273 273 274 274 274 274 274 274 275 275 276 277 277 278 278 279 280 280 281 281 282 282 282 283 284 284 284 284 284 284 284 284 285 285 285 285 286 286 286 286 286 286 286 286 286 286 285 284 284 284 284 283 284 284 284 284 284 284 284 284 283 283 282 281 281 281 280 280 280 279 279 279 278 278 277 277 277 277 277 277 276
272 272 272 271 271 271 272 272 273 273 274 274 275 275 276 277 277 278 278 279 280 280 281 281 282 282 282 283 284 284 284 283 283 283 284 284 284 285 285 285 286 286 285 285 286 286 286 286 286 285 285 285 284 284 284 284 284 284 283 284 284 284 284 284 283 283 282 281 281 281 280 280 280 280 279 279 278 278 277 277 277 276 276 276 276
270 269 270 269 269 270 270 271 271 272 273 274 275 275 276 277 277 278 279 279 280 280 281 281 282 282 282 283 283 283 283 283 283 283 283 284 284 284 285 285 285 285 285 285 285 285 285 286 286 285 285 285 284 284 284 284 284 283 283 283 283 283 283 283 283 282 282 281 281 281 280 280 280 280 279 279 278 278 278 277 277 276 276 276 275
268 268 268 269 269 269 270 271 271 272 273 274 275 275 276 277 277 278 279 279 280 280 281 281 282 282 282 282 283 283 282 282 282 282 283 283 284 284 285 285 285 285 285 285 285 285 285 285 285 285 285 285 284 284 284 284 284 283 283 283 283 283 283 283 283 283 282 282 281 281 280 280 280 280 279 279 278 278 277 277 276 276 276 276 275
270 270 270 270 270 270 270 271 271 272 273 273 274 275 276 276 277 278 279 279 280 280 281 281 281 282 282 282 282 281 281 281 281 282 283 283 283 283 284 284 284 284 285 285 284 284 284 284 284 285 285 284 284 284 284 284 283 283 283 283 283 283 283 283 282 282 282 282 281 281 280 280 280 279 279 279 278 278 277 276 276 276 275 275 275
270 271 271 270 269 269 269 270 271 272 273 273 274 275 275 276 277 277 278 278 279 279 280 280 281 281 281 281 280 280 280 280 281 281 282 282 282 282 282 282 283 283 283 283 283 283 283 283 284 284 284 284 284 284 284 284 283 283 283 283 283 283 283 282 282 282 282 281 281 281 280 280 280 279 279 279 278 278 277 276 276 276 275 274 274
266 267 268 267 267 268 269 270 271 272 273 273 273 274 274 275 276 276 277 277 277 278 278 279 279 279 279 279 278 278 279 280 280 281 281 280 281 281 281 281 281 281 281 281 282 282 282 282 283 283 283 283 283 283 283 283 283 283 283 283 283 283 282 282 282 282 281 281 281 281 280 280 279 279 279 278 278 278 277 276 276 275 275 274 274
264 265 266 266 267 268 269 270 271 272 272 272 272 273 273 274 274 274 275 275 275 276 276 276 277 277 276 276 276 277 278 279 279 280 280 280 280 280 280 280 280 280 280 280 280 280 281 281 281 281 282 282 282 282 282 282 282 282 282 282 282 282 282 282 282 281 281 281 281 280 280 280 279 279 278 278 278 277 277 276 275 275 275 274 274
265 265 266 266 267 268 269 270 270 270 270 271 271 271 271 271 272 272 272 272 272 273 273 273 273 273 273 273 274 275 276 277 277 278 278 279 279 279 280 280 279 279 279 279 279 279 279 280 280 280 280 280 280 280 281 280 281 281 281 281 281 281 281 281 281 281 281 281 280 280 280 279 279 278 278 278 277 277 276 275 275 275 274 274 274
266 265 265 266 266 267 267 268 268 268 269 269 269 270 269 269 269 270 270 270 270 270 270 270 270 270 270 271 272 272 273 274 274 274 275 276 276 276 277 277 277 277 278 278 278 278 278 278 279 279 279 279 279 279 279 279 279 279 279 279 279 280 280 280 280 280 280 280 280 280 279 278 278 278 277 277 277 276 275 275 274 274 274 273 273
267 266 265 265 266 266 266 266 266 267 267 267 268 268 268 268 268 268 268 268 268 268 268 268 268 268 268 269 269 270 270 270 270 271 272 272 273 273 273 274 275 276 276 276 277 277 277 277 277 278 278 278 278 278 278 277 277 277 277 277 277 278 278 279 279 279 279 279 279 279 278 278 277 277 277 276 276 275 275 274 274 273 273 272 272
267 266 265 264 265 265 265 265 265 265 266 266 266 266 267 266 266 266 266 266 266 266 266 266 266 266 267 267 267 267 267 268 268 268 269 270 270 271 271 272 273 274 274 275 275 276 276 276 276 276 277 277 277 277 277 277 276 276 276 276 276 276 276 277 277 278 278 278 278 278 278 277 277 276 276 276 275 275 274 274 273 273 272 271 271
267 266 265 264 264 264 264 264 264 264 264 265 265 265 265 265 265 265 265 265 265 265 265 265 265 265 265 265 265 266 266 266 267 267 267 268 268 269 269 270 271 271 272 273 273 274 275 275 275 275 275 275 276 276 276 276 275 275 275 275 275 275 275 276 276 276 276 277 277 277 277 277 276 276 276 275 275 274 274 273 272 272 272 271 271
266 266 265 264 264 264 264 264 264 264 264 264 264 264 264 264 264 264 264 264 264 264 264 264 264 264 264 264 264 264 265 265 265 266 266 267 267 268 268 268 269 269 270 270 271 272 272 273 273 274 274 274 274 275 275 275 275 275 275 274 274 274 274 274 275 275 275 276 276 276 276 276 275 275 275 275 274 273 273 272 271 271 271 271 270
265 265 265 265 264 264 264 264 263 263 263 263 263 263 263 263 263 263 263 263 263 263 263 263 263 263 263 263 264 264 264 265 265 265 265 266 266 267 267 267 268 268 269 269 269 270 270 271 271 271 272 272 272 273 273 274 274 274 274 274 274 274 273 274 274 274 274 274 274 275 275 275 275 275 274 274 273 272 272 271 271 271 270 270 269
264 264 264 264 264 264 263 263 263 263 263 262 262 262 262 263 262 262 262 262 262 262 262 262 262 262 262 262 263 263 264 264 264 264 265 265 265 266 266 266 266 267 267 268 268 268 269 269 269 270 270 270 270 271 271 271 272 272 272 272 273 273 273 273 273 273 274 274 273 274 274 274 274 274 273 273 272 272 271 271 271 270 270 269 269
263 263 263 263 263 263 263 263 263 262 262 262 262 261 262 262 262 262 262 262 262 262 262 262 262 262 262 262 262 263 263 263 263 263 264 264 264 265 265 265 266 266 266 266 267 267 267 268 268 268 269 269 269 269 269 269 270 270 270 270 271 271 272 272 273 273 273 273 273 273 273 273 273 273 272 272 271 271 271 270 270 270 269 269 268
263 263 262 262 262 262 262 262 262 262 262 261 261 261 261 261 261 261 261 261 261 261 261 262 262 262 262 262 262 262 262 263 263 263 263 263 263 264 264 264 265 265 265 265 266 266 266 267 267 267 267 268 268 268 268 269 269 269 269 269 270 270 271 271 272 272 272 272 272 272 272 272 272 272 272 271 271 270 270 270 270 269 269 269 268
Wind_Speed
17 18 18 18 19 19 18 19 19 20 21 22 23 23 22 22 24 24 25 25 24 24 24 24 24 24 23 23 24 24 23 20 17 17 21 25 28 29 30 30 32 34 34 34 34 33 33 34 36 37 36 35 35 36 36 36 36 36 36 35 36 35 34 32 24 21 28 33 32 33 32 32 33 35 35 37 41 48 51 54 57 57 57 56 53
17 17 17 18 18 18 18 18 18 19 20 21 22 23 22 23 23 23 24 21 19 22 23 23 24 24 23 24 24 24 24 24 20 18 20 25 27 29 30 30 32 33 33 34 34 33 33 34 36 37 36 35 37 36 36 36 35 36 36 36 38 38 36 36 31 24 28 33 32 32 34 35 36 38 38 38 41 43 46 50 54 56 58 57 55
15 16 17 17 17 17 17 17 16 17 18 20 21 21 21 22 22 21 22 19 18 21 21 19 20 22 23 24 24 24 25 25 24 23 23 25 27 28 30 30 31 32 33 34 34 33 33 34 36 37 35 34 36 37 37 36 35 35 36 36 37 38 38 38 35 30 29 30 28 29 32 35 37 38 38 38 39 40 44 48 50 52 56 57 58
15 16 17 17 16 16 16 15 14 15 17 17 18 19 19 20 20 20 20 19 19 21 21 19 19 21 23 24 24 25 25 25 26 27 26 27 27 28 29 30 31 32 33 34 34 33 34 35 37 37 35 35 36 37 36 36 36 35 35 36 36 36 36 37 37 36 32 30 30 32 32 32 35 36 35 35 37 38 42 46 46 48 53 55 56
14 15 15 16 15 14 13 13 13 13 15 16 16 16 17 17 18 18 19 19 19 20 20 20 20 21 22 22 23 24 25 26 26 27 28 28 28 28 29 30 31 32 33 33 34 34 35 36 37 36 35 36 36 36 36 36 36 35 35 36 37 36 34 34 37 38 35 32 34 33 30 31 33 32 32 34 35 36 39 42 43 43 45 49 50
12 13 14 14 13 12 11 11 12 13 14 15 15 15 15 16 16 17 17 17 17 18 19 19 20 21 20 20 20 22 24 25 26 27 28 28 29 29 29 30 31 32 33 33 34 34 35 36 37 36 36 36 37 36 35 35 35 35 35 37 39 37 34 33 34 35 35 36 36 33 31 31 30 29 31 33 34 35 35 36 37 38 40 44 46
12 14 13 13 12 11 10 11 12 12 13 13 13 14 14 14 13 13 14 15 15 16 17 18 18 19 20 20 19 20 23 25 26 26 27 28 27 26 26 28 30 31 32 33 33 34 36 37 37 37 37 37 38 37 36 35 35 35 36 37 36 34 33 32 32 33 34 34 33 31 32 32 30 29 31 32 31 33 33 31 32 35 38 41 41
13 13 13 12 10 9 9 10 11 11 11 12 12 11 11 10 10 10 12 13 14 14 15 16 16 17 19 19 19 21 24 25 26 27 27 28 25 22 21 23 26 29 30 31 32 34 36 37 37 37 37 38 38 38 37 37 36 36 37 36 34 33 32 31 31 30 31 32 30 28 29 31 28 26 27 27 26 30 33 34 32 32 32 35 37
12 12 12 10 9 9 10 10 10 10 10 10 9 8 8 8 8 9 10 11 11 12 12 14 15 17 18 18 19 20 23 25 26 26 27 26 23 19 19 20 22 24 26 27 30 33 35 36 37 37 38 38 39 39 39 39 38 38 37 34 33 33 32 31 30 29 29 28 27 27 26 26 27 25 25 28 31 32 31 30 30 28 27 30 34
12 12 10 9 9 10 10 10 9 9 8 7 6 6 6 7 7 7 8 8 9 10 11 13 14 16 17 18 18 20 22 23 23 23 24 24 22 20 19 19 20 20 21 23 26 29 32 34 36 37 37 38 39 39 40 40 41 41 40 36 34 33 32 31 29 29 28 26 26 25 22 21 25 28 28 30 34 33 28 27 28 25 23 24 27
11 10 9 9 10 10 9 8 8 7 6 6 5 5 5 5 6 6 6 7 8 9 11 12 13 15 16 17 19 20 22 22 21 21 22 22 23 24 23 22 21 20 20 22 23 25 26 27 30 33 34 35 37 38 39 39 40 42 43 42 40 38 35 33 30 29 29 27 27 27 23 23 26 27 28 28 29 30 29 29 28 25 24 20 17
9 8 8 9 9 9 8 8 7 6 5 5 4 4 4 4 4 5 6 6 7 9 10 11 12 14 15 17 18 20 21 21 20 20 20 20 21 23 26 27 26 23 23 24 25 24 23 23 26 29 32 33 34 35 36 37 37 39 40 42 43 43 42 40 36 33 30 28 28 28 27 26 26 26 26 26 27 29 29 29 30 30 31 26 21
9 9 9 9 9 8 8 6 6 5 5 4 4 3 3 3 3 4 5 5 7 8 9 10 12 13 14 16 18 20 20 19 18 18 19 19 19 21 25 28 28 28 28 28 28 27 26 25 26 29 31 32 33 34 34 35 35 36 37 38 40 42 43 44 43 41 38 34 31 32 30 27 27 28 27 27 28 29 27 28 32 33 34 35 35
10 9 9 8 7 7 6 6 5 5 4 3 2 1 1 1 2 3 5 5 7 8 9 10 12 13 14 16 17 20 20 19 18 18 19 19 18 20 23 26 27 28 28 28 28 27 27 27 28 29 30 30 31 32 33 34 34 34 35 36 38 39 39 40 42 43 44 42 39 39 37 32 32 32 30 28 30 31 30 31 33 34 37 39 41
10 9 8 7 7 6 6 6 5 4 3 2 2 1 1 2 3 4 5 6 7 9 10 11 13 13 15 16 18 20 20 19 19 18 18 18 18 19 23 26 27 28 28 27 27 29 30 30 30 30 29 28 28 29 31 32 32 33 34 35 36 36 35 36 37 39 41 43 43 45 44 41 38 37 33 30 31 33 34 35 36 36 36 32 28
11 9 8 7 7 6 5 5 4 3 3 2 2 2 3 4 4 5 7 8 9 11 11 13 14 15 16 17 19 21 21 20 19 19 19 18 18 20 23 26 28 31 33 32 31 32 34 34 33 32 31 29 29 30 30 31 32 33 35 36 35 34 34 34 34 35 37 38 40 42 44 42 40 37 34 32 32 33 32 31 30 29 26 18 15
10 8 7 6 5 5 4 4 3 3 3 3 4 4 6 6 7 8 10 11 12 14 14 15 16 17 18 18 20 22 23 21 21 21 20 18 19 21 23 25 28 30 34 35 35 35 36 35 34 33 32 31 30 30 29 30 32 34 35 35 35 34 33 32 32 33 35 35 37 38 39 39 39 37 36 34 34 32 30 27 25 26 22 13 11
8 7 6 5 5 4 4 4 4 4 5 6 7 8 9 10 11 12 13 14 16 16 17 18 19 19 20 20 21 23 24 22 21 22 21 20 20 21 23 24 26 28 30 31 31 30 30 32 32 32 34 34 31 30 29 29 32 34 34 33 33 32 31 30 30 31 32 32 33 34 34 35 36 36 35 34 33 33 33 32 28 28 25 16 14
9 8 7 6 5 5 5 5 6 7 7 8 9 10 11 12 13 14 15 16 17 18 19 20 21 21 21 21 21 23 24 23 21 21 21 20 19 21 23 23 24 26 26 25 24 22 23 26 28 29 32 33 32 31 30 30 32 34 33 31 31 31 30 28 29 29 28 28 30 30 31 31 31 32 32 31 30 31 35 35 32 32 29 22 20
9 8 7 7 7 7 7 8 9 9 10 10 11 11 13 13 14 15 16 17 19 20 20 22 23 23 22 22 22 23 23 24 21 19 19 19 18 20 22 23 24 26 25 22 21 22 22 23 24 25 27 29 29 29 30 30 32 34 33 31 31 31 30 28 28 27 26 27 27 27 27 27 27 29 29 27 27 29 33 35 34 35 33 25 22
9 8 8 8 8 9 9 10 10 10 11 11 12 12 13 15 15 16 18 19 20 21 21 22 24 25 24 23 23 23 22 22 21 19 18 18 16 17 21 24 25 25 24 22 21 22 21 21 21 22 23 24 25 26 27 28 30 32 34 33 33 33 32 29 26 24 24 25 25 24 24 24 24 25 26 26 27 29 31 34 35 35 35 29 24
10 9 10 10 10 10 10 11 11 11 12 13 14 14 15 16 17 17 18 20 21 22 23 23 24 25 26 25 24 24 22 21 21 19 19 18 17 16 19 23 24 24 25 24 22 21 21 21 21 21 22 24 24 25 27 27 28 30 32 33 33 33 32 30 26 23 22 23 22 19 17 17 19 21 22 23 25 28 31 34 34 33 34 33 28
11 11 11 11 11 12 12 13 13 13 14 15 16 17 17 18 18 19 19 20 22 23 24 23 23 25 27 27 26 25 24 22 21 21 20 20 19 18 19 21 22 23 25 26 24 23 22 22 23 23 23 24 25 26 27 27 28 30 30 30 30 30 29 28 25 23 22 22 20 15 13 14 15 17 19 22 24 27 30 32 33 31 30 30 28
13 13 13 13 14 14 14 15 15 16 17 18 19 19 19 20 20 20 20 20 22 23 24 24 23 25 27 28 29 28 26 24 24 23 22 22 21 20 20 21 21 22 25 27 27 24 24 24 25 25 25 26 27 27 28 28 28 29 29 28 28 27 26 25 24 23 22 20 16 14 13 15 17 18 21 24 25 25 26 26 27 27 26 27 27
15 14 15 15 16 16 17 17 17 18 18 19 20 21 21 22 21 21 21 21 22 23 24 24 23 25 27 30 31 29 27 26 27 26 25 24 22 21 20 20 20 21 23 27 28 27 27 28 29 29 29 29 29 28 29 29 28 28 27 27 26 25 23 22 23 22 19 15 13 13 15 17 20 22 23 23 22 22 22 22 21 22 22 21 21
16 15 16 16 17 18 19 19 20 21 21 21 22 22 22 22 23 22 22 22 23 23 24 24 23 24 27 30 31 31 29 28 28 27 26 25 25 23 22 22 21 21 23 26 27 28 29 29 28 28 28 28 28 27 28 29 28 26 25 25 24 23 22 21 22 21 17 13 13 16 18 20 21 21 19 19 20 21 21 22 21 20 19 18 17
16 17 18 18 18 19 20 21 22 23 24 24 25 25 24 23 23 22 21 22 22 22 23 22 19 19 22 25 27 29 29 26 25 26 24 23 23 22 20 21 22 22 23 25 25 26 27 27 27 27 26 26 25 25 25 27 26 24 24 23 22 23 23 23 23 22 20 18 18 18 18 18 19 19 18 18 20 21 22 23 22 20 20 21 20
17 18 20 20 21 22 22 22 24 25 25 25 26 26 25 24 23 23 22 22 21 20 19 18 16 16 19 21 22 24 23 20 20 23 22 21 21 18 16 17 19 19 20 22 24 26 26 24 24 24 23 21 20 19 21 24 24 22 22 21 20 21 21 22 22 22 21 20 19 17 16 15 17 18 18 18 20 20 21 22 22 22 23 22 19
17 19 21 22 23 24 24 24 25 25 26 26 26 26 24 22 23 25 24 21 20 19 19 18 17 17 19 20 19 21 21 19 19 22 24 24 23 21 20 20 19 18 19 20 22 24 22 18 18 18 18 16 15 14 16 19 20 19 19 19 19 18 17 19 21 21 20 18 16 14 15 16 17 18 18 18 19 19 21 22 22 23 23 20 17
16 18 20 22 23 24 25 25 25 25 26 27 28 28 27 23 22 24 26 24 21 18 18 20 20 19 21 23 21 21 25 27 27 26 27 26 24 23 23 23 23 23 23 22 22 21 19 17 17 17 17 16 13 12 13 16 17 17 16 16 17 16 16 18 19 19 20 19 16 14 17 18 18 18 18 19 18 19 20 21 22 24 22 18 16
18 18 20 21 22 23 24 25 25 26 26 26 26 27 28 27 24 23 23 23 22 20 19 22 23 21 23 26 26 25 27 28 29 27 26 25 25 24 25 25 25 24 22 21 21 20 18 17 17 16 16 15 13 12 15 17 16 14 12 13 14 15 15 18 17 16 18 19 17 16 18 18 19 19 20 19 19 20 20 19 20 23 21 15 14
19 19 19 20 21 22 23 24 25 25 25 23 21 20 22 24 25 25 24 25 26 25 23 22 21 21 21 24 26 27 26 26 26 27 26 26 26 26 26 26 25 23 21 20 20 20 19 18 17 15 14 13 12 13 15 16 13 12 11 12 13 13 15 18 18 16 17 19 19 18 18 18 18 19 19 19 18 19 20 19 19 21 19 13 12
18 18 18 19 21 22 22 22 23 22 21 20 18 17 17 18 22 27 29 29 27 24 22 20 19 20 21 22 23 25 26 27 27 27 26 25 25 25 26 25 23 21 20 19 19 19 18 18 17 14 12 11 11 11 13 13 12 12 12 13 12 12 15 18 18 17 19 21 20 19 18 18 18 17 17 18 17 18 21 21 19 20 17 12 10
17 17 18 19 20 21 21 21 21 21 21 19 17 17 17 17 18 22 25 26 23 20 18 18 18 19 22 24 24 25 26 27 26 25 24 23 23 23 23 23 21 18 18 18 19 18 18 17 16 14 12 12 12 12 12 12 11 12 13 13 12 11 12 14 16 18 20 20 18 18 19 18 18 17 17 17 17 16 17 19 20 19 16 12 11
17 17 17 17 17 18 18 18 18 19 19 18 17 16 17 18 19 19 20 21 21 21 20 19 19 21 24 26 26 26 25 25 25 23 23 22 21 20 20 20 18 15 13 15 16 17 17 17 16 13 14 15 15 13 13 12 11 12 12 12 11 11 10 12 15 19 20 19 17 19 20 19 19 18 17 18 18 16 15 19 22 20 15 13 14
17 17 17 15 14 14 15 15 17 18 18 18 17 17 17 17 18 18 19 19 20 21 22 22 22 23 23 23 23 24 24 24 24 24 23 21 19 18 17 17 16 15 13 13 14 14 16 17 15 13 15 17 17 15 14 12 12 13 13 11 10 11 12 13 15 17 19 19 18 18 19 19 19 18 15 15 19 19 19 21 23 20 16 14 16
17 17 17 16 16 17 18 18 19 19 18 17 17 17 17 17 17 17 18 18 18 19 21 22 23 22 21 19 19 21 24 26 25 24 21 18 15 14 14 15 15 16 15 14 13 14 15 15 15 15 16 17 18 17 16 15 16 16 15 12 10 10 12 14 14 15 18 18 17 18 19 19 19 19 17 14 15 16 17 20 22 20 18 18 18
17 17 17 17 18 18 19 19 19 18 17 16 16 16 16 17 17 17 17 17 18 19 19 20 20 19 19 19 19 21 24 25 23 19 16 14 12 12 12 13 14 15 15 14 14 15 15 14 15 16 16 16 17 18 18 17 16 15 13 12 11 10 11 12 13 14 17 17 16 18 21 20 19 20 20 19 19 17 17 20 22 21 19 19 19
16 16 16 16 16 15 16 17 17 16 15 15 16 16 16 17 17 17 17 18 18 18 18 18 18 17 18 19 21 22 22 20 17 15 14 14 13 13 13 13 13 13 13 13 14 15 15 15 14 15 14 15 15 15 15 14 13 12 10 9 9 9 10 11 12 14 16 17 16 17 20 20 20 21 22 22 23 22 20 22 25 24 22 19 19
14 15 16 15 14 14 14 15 14 14 14 15 16 16 16 17 17 17 18 18 18 18 17 17 17 17 17 18 20 21 20 17 16 15 15 15 14 13 13 13 13 13 13 13 14 14 14 14 14 13 13 12 12 12 12 11 11 10 10 10 9 9 10 11 12 14 16 18 17 17 19 19 20 21 22 22 23 23 22 23 26 27 25 23 21
14 14 15 15 14 13 13 13 12 12 13 14 14 14 15 16 16 17 17 17 17 18 18 17 17 17 18 19 20 20 18 17 15 15 15 15 15 13 12 11 11 12 12 13 13 14 14 13 13 12 11 11 11 11 11 11 10 10 10 11 11 11 12 12 12 14 16 18 18 19 19 20 20 21 23 23 22 21 21 23 25 26 25 23 23
14 13 13 14 13 13 12 12 12 13 13 13 12 13 14 14 14 15 15 16 16 17 17 17 18 19 20 21 21 19 17 15 14 15 15 15 14 13 12 11 11 12 12 13 13 14 15 14 13 12 11 10 10 10 10 11 11 11 10 11 12 13 13 13 14 15 17 17 19 19 19 20 20 21 22 23 22 20 20 21 22 24 23 22 22
13 12 12 12 12 12 12 12 13 13 13 13 13 13 13 13 13 13 13 14 15 15 16 17 18 20 21 22 21 20 18 17 16 17 16 15 14 14 13 13 12 13 13 13 13 14 14 14 13 12 10 9 8 9 9 10 11 11 10 11 11 13 14 14 14 16 16 17 18 19 19 19 20 21 21 20 19 20 20 20 20 21 21 21 21
13 13 12 11 11 11 11 11 11 12 13 13 12 13 13 13 13 13 13 13 14 14 14 16 18 19 20 22 22 21 21 20 20 19 19 18 17 16 16 15 14 13 12 12 12 12 12 13 13 12 11 10 9 8 8 9 10 11 11 11 11 11 12 12 12 14 16 17 18 18 18 18 19 19 19 20 20 20 20 20 20 20 20 20 20
13 13 13 12 12 12 13 12 11 11 12 12 11 11 12 12 13 14 13 14 15 15 15 16 18 19 20 21 21 21 20 21 21 21 21 20 19 18 17 16 15 14 13 13 12 12 12 12 13 13 13 12 11 9 8 8 10 11 12 11 11 11 11 11 11 12 14 16 17 18 18 18 19 19 19 20 20 20 19 19 20 20 20 21 21
13 13 12 12 13 13 14 14 13 12 11 10 10 11 11 12 12 13 14 14 15 15 15 16 17 19 19 20 21 21 21 21 21 21 21 21 20 19 18 17 16 15 14 14 13 13 12 12 13 13 14 13 12 10 9 8 9 11 11 10 10 10 10 11 12 11 12 13 15 17 18 18 19 20 20 20 20 20 19 19 20 20 21 21 20
13 13 13 12 13 14 14 14 15 14 13 12 12 11 11 12 12 13 14 15 16 15 14 15 16 17 19 20 21 22 22 22 21 21 21 20 20 20 19 18 17 16 15 15 14 14 13 12 13 13 13 13 12 11 10 10 10 10 10 9 9 8 9 9 10 10 11 12 13 15 17 17 17 18 19 19 19 18 17 18 19 19 20 19 18
13 13 13 12 13 13 14 15 15 14 13 15 16 13 11 12 13 12 13 15 15 14 14 15 16 17 19 20 21 22 22 22 22 22 21 20 20 20 19 19 18 18 17 16 15 15 14 14 14 13 12 12 11 10 10 10 10 10 10 10 9 9 8 8 8 8 8 9 10 12 14 16 16 17 18 19 19 18 18 18 18 18 17 16 16
12 12 12 12 12 13 13 14 14 13 13 16 16 14 12 12 12 12 13 15 14 14 14 16 17 18 19 19 20 21 21 22 22 22 21 21 21 20 20 19 19 18 18 17 16 16 15 15 14 14 13 13 11 10 9 9 8 8 9 9 9 9 9 8 7 5 5 5 7 9 11 13 14 15 16 17 17 17 18 18 17 18 18 17 16
12 12 12 12 12 13 13 13 13 13 14 14 15 14 14 13 12 13 15 17 16 16 16 17 18 19 19 19 20 21 21 21 21 21 21 21 20 20 20 19 19 19 18 18 17 16 15 15 14 13 13 13 12 11 11 10 9 9 9 9 8 8 8 8 7 6 5 4 4 6 8 10 11 12 13 14 14 15 16 17 16 17 18 17 16
12 12 12 12 13 13 14 14 14 14 14 14 14 15 16 16 15 15 16 17 17 18 18 19 19 18 18 19 19 19 20 20 20 20 20 20 20 20 19 19 19 19 18 18 18 17 16 16 15 14 13 13 12 11 11 10 10 10 9 9 9 8 7 7 7 6 5 4 4 5 6 7 9 10 10 12 13 14 15 15 15 16 17 17 17
Wind_Direction
219 222 226 229 233 236 238 241 243 245 248 250 252 255 256 258 259 261 262 264 265 264 263 261 260 260 259 258 257 256 255 253 251 253 255 255 252 253 254 252 251 252 251 249 248 246 245 245 247 249 249 247 247 248 247 246 247 245 244 243 241 238 236 237 245 259 258 256 258 261 262 265 265 260 258 257 250 243 240 238 236 235 234 233 231
221 224 227 230 234 236 237 240 242 245 249 251 253 255 256 258 260 261 261 262 262 262 263 262 262 262 261 260 259 259 258 256 254 253 254 257 256 254 254 253 253 253 252 251 250 248 248 248 250 252 250 248 248 249 249 247 246 246 243 241 241 239 236 236 241 253 263 261 256 257 258 257 259 259 258 257 252 247 243 240 237 235 235 235 233
224 227 230 232 234 236 237 239 242 246 249 253 256 259 261 262 262 262 262 262 262 263 264 262 262 264 263 262 261 260 260 259 257 255 255 260 260 258 256 255 254 254 253 253 253 251 249 249 252 253 250 249 249 249 249 248 246 245 244 242 242 242 239 237 239 247 258 262 256 256 259 256 255 257 257 258 256 250 246 243 240 238 236 235 235
224 227 230 233 235 236 238 240 242 246 250 254 259 261 263 264 265 265 266 266 265 267 268 265 264 265 263 262 261 261 261 261 261 259 258 259 261 261 261 259 257 256 255 255 255 253 251 250 253 254 250 248 249 249 249 248 246 245 245 244 243 243 242 240 240 243 252 262 261 259 259 256 256 258 257 256 254 249 247 245 242 239 237 233 233
226 229 231 235 236 238 242 245 248 253 256 259 263 265 267 266 266 267 267 267 267 268 269 267 265 264 262 263 263 263 264 264 263 263 262 260 261 262 263 263 262 260 258 257 256 254 253 252 254 254 251 249 249 250 249 248 247 246 245 245 244 244 244 242 242 243 246 255 261 261 259 257 258 259 255 252 249 246 246 245 240 238 236 232 231
232 233 234 238 241 244 248 252 254 256 258 261 263 264 263 261 262 264 265 267 267 267 267 268 267 266 265 265 264 264 267 268 267 267 266 264 263 262 263 263 263 263 261 260 258 257 255 255 255 254 251 250 250 250 250 249 248 246 245 246 246 246 245 243 243 243 244 250 257 260 259 257 256 255 253 249 246 242 241 240 238 235 233 230 229
239 236 236 239 244 249 251 251 250 251 253 254 255 255 256 257 259 261 263 264 265 265 267 269 269 269 268 266 264 266 269 270 269 269 267 266 264 262 261 261 262 264 264 262 261 260 258 258 257 255 253 252 252 252 251 250 249 248 247 247 248 246 244 244 243 242 243 248 252 254 256 257 255 253 253 251 246 241 236 231 229 229 229 228 226
244 236 234 237 244 248 247 245 243 244 245 246 249 252 255 258 260 259 261 263 264 266 269 271 271 270 269 268 267 269 270 270 269 269 268 268 264 259 259 260 262 265 266 264 262 261 261 259 258 257 256 256 255 254 253 252 250 250 250 248 247 246 244 244 243 241 242 246 249 250 253 255 252 249 247 241 234 235 232 226 223 224 225 226 224
244 233 229 230 234 236 236 236 235 236 239 241 245 249 251 254 254 254 257 261 265 268 269 270 270 270 271 271 270 271 271 270 269 269 269 269 266 261 259 261 263 265 265 264 263 263 262 261 260 259 259 259 259 258 257 256 253 252 252 250 247 246 245 243 242 241 241 243 246 248 248 248 245 240 236 228 225 231 231 223 224 226 221 220 221
232 224 219 215 218 222 224 227 227 227 230 232 233 237 240 246 252 258 263 267 272 274 272 271 272 272 274 275 274 274 273 274 276 275 273 271 268 266 264 262 263 264 263 262 261 262 262 261 260 261 262 263 263 262 261 260 258 256 256 254 250 247 245 243 241 240 239 239 241 242 241 241 239 236 237 234 231 233 228 217 219 218 209 211 218
216 207 200 200 207 210 211 211 211 211 213 214 219 226 234 246 256 264 269 271 272 273 272 274 276 278 280 279 278 278 278 282 286 285 282 278 273 270 267 266 263 260 261 262 262 262 262 260 260 262 263 263 262 263 263 263 263 262 260 258 254 251 247 244 242 240 239 240 243 243 241 244 246 243 242 240 232 227 222 216 211 202 197 201 207
195 183 182 189 195 195 195 194 194 196 199 202 211 221 232 246 257 264 268 269 270 271 275 279 281 281 282 282 282 282 283 287 290 288 286 283 279 274 270 268 265 261 259 259 260 263 263 262 261 262 262 261 261 263 264 264 265 264 264 262 259 256 252 249 247 244 242 242 246 246 243 247 253 249 241 237 229 222 218 214 207 201 201 203 203
169 168 175 182 183 181 180 178 179 185 188 194 202 210 228 246 258 273 279 280 281 284 287 287 286 284 284 285 286 287 289 292 293 291 289 286 282 277 272 269 267 264 262 261 260 261 262 262 264 264 263 263 263 262 262 263 264 265 265 264 262 260 257 254 252 250 248 247 249 252 250 249 253 252 246 238 228 218 211 210 208 207 207 210 214
153 160 165 167 168 166 165 164 171 178 177 176 182 186 251 303 309 301 302 302 301 301 299 296 293 291 289 289 291 293 295 299 300 298 296 293 288 281 275 272 269 267 265 262 259 260 261 262 263 265 267 266 264 263 264 265 265 264 263 263 262 261 260 257 255 254 252 250 251 255 256 253 253 256 254 244 230 219 213 213 213 213 215 221 224
136 140 143 145 147 149 152 156 159 158 149 133 102 67 11 355 340 317 311 311 308 305 303 301 299 296 295 294 295 297 301 305 304 302 299 297 294 286 278 274 271 269 268 265 261 262 264 264 264 265 267 265 262 263 265 267 266 264 263 263 263 263 262 260 259 258 256 254 253 255 258 258 257 258 257 251 240 232 228 227 225 222 222 226 227
121 124 127 129 133 137 137 138 133 120 106 82 49 21 358 347 334 321 316 313 311 309 307 306 303 301 301 298 296 300 306 308 305 302 301 299 294 286 280 276 272 271 272 271 269 269 270 269 267 266 266 265 264 265 265 265 265 264 264 264 265 264 263 262 263 263 262 260 259 259 261 261 261 260 258 254 248 240 232 229 227 221 217 216 212
106 107 111 111 115 114 108 102 91 73 53 27 10 359 349 343 335 328 323 319 317 315 312 310 308 306 305 303 301 302 308 311 308 304 303 301 294 286 280 277 274 273 275 275 274 273 273 271 268 267 267 266 267 267 265 263 263 262 262 263 264 264 263 264 265 266 265 265 264 263 263 263 263 262 258 254 251 241 225 216 214 208 202 201 198
79 78 78 79 82 77 69 57 38 27 16 4 355 349 343 339 333 327 322 318 314 313 311 309 308 307 306 305 304 303 305 309 309 306 305 302 296 289 283 279 275 274 276 277 275 273 271 271 268 266 267 267 267 267 265 262 261 260 260 262 262 262 263 264 266 266 266 266 265 265 264 263 260 259 257 253 250 241 224 216 213 203 197 198 196
55 55 55 56 56 47 36 25 14 6 0 354 347 341 335 331 327 322 318 314 312 311 310 307 306 305 305 305 303 301 303 306 307 306 304 301 295 290 285 279 275 274 275 276 275 270 268 271 271 268 269 270 269 268 266 262 261 260 260 260 260 261 264 265 266 266 265 265 265 265 264 263 258 254 253 249 245 238 229 223 217 205 200 201 197
42 45 44 41 36 26 17 11 3 356 349 344 338 334 330 325 322 319 316 313 311 309 308 306 304 304 304 305 304 302 303 306 308 305 301 296 291 286 280 275 272 275 276 275 276 274 272 272 272 270 272 272 270 270 268 264 262 262 260 257 257 262 267 268 267 267 265 265 266 265 264 263 257 251 249 244 238 233 229 225 219 210 205 203 198
36 35 32 27 21 13 6 360 355 349 341 334 330 328 325 322 321 318 315 313 311 309 309 308 306 306 307 306 305 306 307 307 307 305 301 297 292 283 277 273 272 275 278 277 275 276 276 274 273 273 274 273 272 273 271 267 265 264 261 258 260 265 269 270 268 267 267 266 265 263 261 258 252 247 244 241 236 229 224 222 219 215 212 209 206
27 25 21 15 8 3 357 351 347 342 337 331 326 324 323 322 320 319 317 315 313 311 311 311 308 307 309 308 308 310 311 309 307 307 304 301 297 288 280 278 278 278 278 277 275 275 275 276 276 277 276 275 275 273 272 271 269 266 264 263 265 267 268 267 266 264 264 263 261 258 253 248 244 242 239 237 233 227 222 221 220 218 217 215 214
19 16 11 6 0 355 350 347 343 339 336 332 328 326 324 322 321 321 319 317 315 313 313 312 310 308 309 310 311 312 312 311 309 308 307 303 299 294 287 284 283 280 277 276 276 275 275 276 278 279 278 277 275 273 273 272 270 268 269 268 268 268 266 264 261 257 257 257 254 248 244 240 238 238 235 233 231 226 223 222 221 219 218 218 219
11 7 4 0 356 351 348 346 344 340 337 333 330 328 327 324 323 321 320 319 316 313 312 312 311 310 309 309 309 310 311 311 310 309 308 305 302 300 294 288 285 282 277 276 275 275 275 276 278 280 279 277 276 275 275 274 271 269 270 270 269 267 262 256 252 250 249 249 245 240 240 238 236 236 236 234 231 227 222 218 218 217 216 217 219
4 0 358 356 352 347 344 343 341 340 339 336 333 331 330 327 324 322 320 319 315 311 310 311 310 308 307 307 307 308 309 309 309 310 310 308 306 306 301 292 286 283 280 278 278 278 279 280 281 280 279 278 277 275 273 272 271 269 268 267 266 262 255 249 244 243 241 238 236 237 239 240 240 241 239 234 227 222 214 207 207 209 208 210 211
2 359 356 353 350 347 344 342 340 339 339 337 335 334 331 327 324 320 318 317 313 310 308 309 308 306 304 304 305 307 308 308 308 310 311 312 313 312 308 300 291 284 281 281 283 285 286 287 286 283 281 279 275 271 270 270 270 270 268 267 262 255 249 242 236 234 233 230 233 238 240 242 241 236 231 224 217 213 208 201 197 196 196 194 188
3 0 358 354 351 349 348 345 343 341 339 337 334 331 328 326 321 315 312 312 310 308 306 305 303 300 300 301 303 305 305 304 306 309 312 314 316 314 310 305 300 294 289 288 290 293 295 295 293 288 284 281 275 269 266 266 267 267 265 264 260 252 246 240 236 235 236 235 237 241 241 238 232 224 217 212 209 208 204 198 191 185 184 183 174
3 1 359 356 354 352 350 347 343 340 336 333 330 327 325 323 317 310 308 309 306 302 299 298 296 295 297 299 301 302 299 296 301 307 310 311 311 309 305 304 304 301 297 296 299 301 301 298 293 288 284 279 273 266 261 260 260 261 260 258 256 249 243 239 237 237 236 236 238 238 233 225 218 213 210 205 203 201 198 194 190 184 180 176 168
5 3 1 358 356 353 350 348 344 340 336 332 330 326 322 319 315 312 311 310 307 301 294 289 289 294 295 294 296 297 294 293 298 303 304 304 304 301 296 295 295 293 293 297 300 300 298 292 287 284 278 271 262 257 257 257 257 256 255 252 250 246 237 231 231 232 231 230 228 225 221 218 213 208 205 201 198 197 195 193 190 184 180 176 172
6 4 2 0 357 354 352 350 346 343 340 336 332 328 323 319 318 315 315 315 313 307 298 290 290 292 290 288 287 285 285 290 296 300 300 300 299 296 293 290 290 289 290 292 291 288 285 280 276 276 273 266 257 249 252 255 252 251 251 248 245 242 234 229 230 232 232 228 222 217 216 213 209 206 203 200 197 195 195 194 190 184 182 179 173
6 2 0 359 358 357 354 352 349 345 341 337 333 328 324 322 320 317 317 317 315 310 303 298 296 293 288 286 286 285 284 289 294 298 299 298 296 295 294 293 291 290 290 288 283 277 274 271 268 269 268 263 257 254 255 254 250 245 243 242 241 238 232 229 229 231 231 227 220 216 215 211 209 209 206 202 199 196 193 192 191 189 187 183 175
3 359 357 357 357 357 355 352 349 345 340 335 331 326 323 321 321 320 320 320 317 314 311 307 302 297 291 287 289 290 290 292 295 298 300 299 297 297 297 295 292 288 285 282 276 271 268 265 262 264 264 259 256 257 255 252 247 240 237 240 240 235 231 231 231 230 228 224 218 214 213 210 208 209 207 202 198 194 191 191 192 191 189 185 181
0 358 357 355 355 355 354 350 346 343 338 332 326 323 322 319 319 319 320 321 319 315 312 309 304 300 298 296 295 296 296 299 303 305 304 301 298 297 297 295 290 286 281 275 269 267 267 265 261 259 258 255 256 257 253 248 246 242 240 242 241 236 237 239 236 228 225 223 217 213 212 210 208 207 205 203 200 196 193 193 191 190 189 185 180
359 359 358 357 354 352 349 345 341 338 335 330 322 317 314 312 310 310 311 314 316 312 310 309 307 307 310 310 308 306 305 307 309 309 306 303 298 296 296 294 289 284 276 268 266 268 270 269 264 259 255 254 256 257 255 252 248 244 242 244 244 242 242 241 231 222 220 219 215 212 211 209 206 204 202 202 200 197 195 196 194 192 191 185 177
358 357 357 357 351 344 339 335 331 327 326 325 319 312 307 305 303 301 301 305 308 308 309 311 311 314 317 318 316 315 314 314 313 310 307 303 299 297 296 293 289 284 275 267 268 272 273 273 270 261 254 254 256 257 257 253 248 244 242 242 242 239 236 230 223 219 218 216 213 212 212 209 207 205 202 201 200 196 196 199 199 196 193 188 182
358 356 355 350 340 331 325 322 322 322 320 317 313 308 303 299 298 298 298 299 301 303 306 309 312 314 315 315 316 318 317 316 315 312 308 304 301 298 293 287 286 286 280 273 273 276 278 280 277 266 257 255 256 257 256 253 251 249 246 243 240 236 232 227 221 217 216 215 213 212 211 208 207 205 201 199 202 202 203 204 202 199 195 189 183
356 354 351 345 339 336 333 331 332 330 321 311 306 302 299 295 294 295 297 297 299 302 305 308 311 313 314 314 316 318 317 317 317 316 313 309 306 299 289 285 287 288 285 282 281 280 281 283 280 273 264 258 256 256 255 256 257 255 252 248 242 236 234 233 227 219 216 215 214 212 210 208 207 206 203 200 200 202 204 203 200 198 196 192 186
357 354 352 348 346 343 338 335 334 328 317 309 306 303 301 300 299 299 300 301 302 304 304 307 310 311 313 317 321 322 320 319 320 322 321 319 316 308 299 295 294 291 289 290 290 288 285 285 285 280 272 265 261 260 258 258 257 254 251 248 242 237 235 235 231 224 219 215 214 214 213 211 211 210 208 206 203 202 202 201 199 194 192 191 188
357 356 355 352 348 342 335 330 327 322 316 314 315 312 310 309 310 310 310 309 309 309 309 310 311 313 316 321 326 326 323 319 317 318 319 319 317 316 314 311 307 305 303 303 303 301 295 290 290 289 281 272 267 264 261 260 257 254 250 245 239 235 234 230 227 224 221 217 216 216 215 214 215 215 212 210 209 207 202 199 198 195 191 190 192
350 349 352 351 345 338 335 331 328 324 320 319 320 319 318 317 318 318 317 316 315 316 317 317 317 319 323 328 330 329 323 316 312 314 317 318 319 319 320 320 318 318 320 318 317 316 311 303 299 299 294 286 279 273 268 265 262 258 254 248 241 239 238 233 228 225 223 221 220 218 216 215 217 216 213 211 212 210 205 201 200 199 196 195 195
352 348 351 353 347 338 334 333 330 327 324 323 323 324 325 326 326 325 325 325 325 325 325 325 323 325 328 332 333 332 324 316 315 317 318 319 321 320 319 320 321 321 324 323 322 321 319 315 312 311 307 302 298 291 284 278 272 265 260 255 249 246 244 239 234 232 230 226 224 223 222 220 219 217 215 214 214 211 207 204 203 201 200 199 197
4 357 353 350 345 339 336 335 333 331 330 331 332 333 333 333 333 333 334 334 334 333 331 330 330 332 337 341 342 340 335 328 327 329 328 326 326 325 323 324 327 327 326 325 323 321 319 317 316 316 314 310 305 301 298 293 287 281 273 265 258 253 249 245 241 239 236 231 228 228 227 224 221 220 218 216 211 206 204 203 202 200 199 198 195
16 12 2 352 349 348 345 340 337 338 338 335 334 337 339 338 337 338 338 338 339 338 336 334 335 338 343 350 353 354 353 350 347 346 345 343 341 340 337 334 332 329 327 326 324 324 324 322 319 318 318 316 311 308 305 301 298 294 289 281 272 263 256 252 247 243 239 234 232 231 228 223 222 221 216 210 204 201 201 201 198 196 195 192 190
23 23 17 8 4 3 358 351 346 344 345 342 338 341 346 346 345 345 342 340 343 344 340 341 344 344 348 355 0 1 1 0 358 357 356 355 353 350 347 343 339 335 332 330 328 328 330 329 326 324 320 318 316 313 309 309 309 306 299 294 286 276 269 264 256 249 244 240 236 233 227 222 220 218 212 206 203 202 200 198 196 195 193 190 188
26 27 23 16 13 11 10 8 1 350 349 351 349 348 351 351 350 350 348 344 345 346 345 348 352 353 354 359 3 3 4 5 5 5 4 3 1 358 355 352 348 344 341 338 335 335 334 333 331 328 323 319 316 310 305 310 315 313 308 301 293 284 278 272 265 259 254 248 241 235 229 224 220 217 212 208 206 204 201 198 196 195 193 191 190
27 28 25 20 17 15 14 14 10 1 358 358 353 349 352 354 353 355 356 353 350 348 346 348 352 355 357 360 3 5 7 8 9 9 8 7 6 5 2 1 358 354 351 347 344 342 339 335 332 329 324 320 318 315 309 308 311 312 313 311 302 292 284 275 268 264 260 253 245 238 234 229 223 219 215 210 207 204 200 197 196 196 195 194 192
24 26 26 23 19 15 14 14 13 9 7 6 0 354 353 355 356 358 1 360 358 355 353 352 355 358 360 1 3 5 6 6 7 8 8 8 7 6 5 4 4 2 0 359 355 352 349 344 340 336 329 324 320 316 313 312 311 311 313 317 316 311 300 287 275 266 259 254 249 244 240 234 226 220 217 212 206 201 197 196 198 198 196 195 191
14 17 18 18 17 14 11 11 10 8 5 5 4 0 355 354 355 355 356 357 357 355 354 354 357 359 1 3 4 5 6 6 6 6 6 6 6 6 5 4 4 2 2 2 2 1 360 357 354 352 347 340 334 327 320 317 315 314 314 316 320 323 321 310 293 276 262 255 250 246 244 238 230 225 222 217 209 201 198 199 200 198 195 192 189
3 4 5 6 8 8 6 6 5 2 0 1 0 356 352 351 351 350 350 352 353 352 351 352 355 356 358 359 1 3 5 5 4 5 5 5 6 6 5 4 3 2 1 1 1 2 2 2 1 1 1 0 359 357 351 343 337 333 329 324 323 324 325 324 318 305 289 275 259 249 245 240 234 231 229 222 213 207 204 204 202 199 197 194 189
348 350 352 353 354 356 356 356 357 355 355 354 352 348 345 344 343 344 346 347 348 348 349 350 353 354 355 354 356 358 0 1 1 2 3 3 4 4 5 4 4 3 2 2 1 360 359 359 358 358 360 2 3 4 4 3 0 357 354 348 342 337 332 329 326 318 311 307 287 265 253 243 237 235 229 220 212 209 207 206 204 201 200 197 191
334 337 338 339 341 343 343 344 345 344 344 344 342 338 337 337 336 336 338 340 340 341 342 343 346 348 348 348 350 351 352 353 355 356 357 358 359 0 2 3 3 3 3 2 1 360 358 357 356 354 353 353 353 352 352 352 352 352 348 343 342 342 341 339 337 329 321 315 304 288 271 253 243 239 228 217 213 211 211 211 210 204 200 197 193